Location: Lahitte
(43.6596°N, 0.6805°E)
Time: 15:44:58
(UTC+00:00)

BREEZE-M DEB - Pass Details

Date: 15 May 2026
Orbit: 815 x 34901 km, 45.0° (Epoch: 9 June)

Event Time Altitude Azimuth Distance (km) Brightness Sun altitude
Rises 22:29:45 0° 257° (WSW) 3,352 6.9 -24.4°
Reaches altitude 10° 22:31:39 10° 258° (WSW) 2,412 6.2 -24.5°
Maximum altitude 22:36:05 88° 350° (N) 1,085 4.1 -24.8°
Drops below altitude 10° 22:47:18 10° 79° (E) 5,808 7.9 -25.5°
Sets 22:55:50 0° 81° (E) 9,341 9.0 -25.9°
